Tracking 28081 objects as of 27-Sep-2023
HD Live streaming from Space Station
objects crossing your sky now

STARLINK-3059

Track STARLINK-3059 now!
10-day predictions
STARLINK-3059 is classified as:


NORAD ID: 49181
Int'l Code: 2021-082BD
Perigee: 577.0 km
Apogee: 581.4 km
Inclination: 70.0 °
Period: 96.1 minutes
Semi major axis: 6950 km
RCS: Unknown
Launch date: September 14, 2021
Source: United States (US)
Launch site: AIR FORCE WESTERN TEST RANGE (AFWTR)
Your satellite tracking list
Your tracking list is empty




NASA's NSSDC Master Catalog

Two Line Element Set (TLE):
1 49181U 21082BD  23269.55038879 -.00000163  00000-0 -58490-5 0  9996
2 49181  70.0018  31.4280 0003135 268.9432  91.1368 14.98322363113087
Source of the keplerian elements: AFSPC